RYR629 LPMA-EIDW

Flight info

Callsign RYR629
Flight time N/A
Altitude 36000
Route MARC1E MARCU LIDRO RIPEL ADVAT T290 GELPO JABEX BIBLA SUTEX SUTE4L
Aircraft B738/M-V/N

Departure

Time 2026-05-06 16:57
Airport Cristiano Ronaldo International Airport (LPMA)

Arrival

Time N/A
Airport Dublin Airport (EIDW)
Time Latitude Longitude Altitude Speed Heading
2026-05-06 16:57 32.79400 -16.69109 4724 ft 248 kts 21°
2026-05-06 16:57 32.81046 -16.68378 5238 ft 255 kts 22°
2026-05-06 16:58 32.82706 -16.67605 5851 ft 257 kts 22°
2026-05-06 16:58 32.84379 -16.66795 6406 ft 262 kts 22°
2026-05-06 16:58 32.86069 -16.65954 6985 ft 264 kts 23°
2026-05-06 16:58 32.87728 -16.65110 7555 ft 269 kts 23°
2026-05-06 16:59 32.89443 -16.64223 8307 ft 270 kts 23°
2026-05-06 16:59 32.91216 -16.63295 8665 ft 289 kts 23°
2026-05-06 16:59 32.93083 -16.62309 9270 ft 296 kts 23°
2026-05-06 16:59 32.94975 -16.61301 9993 ft 300 kts 22°
2026-05-06 17:00 32.96890 -16.60275 10664 ft 303 kts 22°
2026-05-06 17:00 32.98819 -16.59236 11319 ft 307 kts 22°
2026-05-06 17:00 33.00779 -16.58180 11976 ft 311 kts 22°
2026-05-06 17:00 33.02753 -16.57112 12639 ft 314 kts 21°
2026-05-06 17:01 33.04760 -16.56025 13280 ft 318 kts 21°
2026-05-06 17:01 33.06793 -16.54923 13953 ft 321 kts 22°
2026-05-06 17:01 33.08837 -16.53811 14529 ft 325 kts 21°
2026-05-06 17:01 33.10912 -16.52683 15091 ft 330 kts 21°
2026-05-06 17:02 33.13013 -16.51539 15654 ft 334 kts 21°
2026-05-06 17:02 33.15140 -16.50381 16223 ft 338 kts 21°
2026-05-06 17:02 33.17287 -16.49211 16803 ft 341 kts 21°
2026-05-06 17:02 33.19461 -16.48026 17374 ft 345 kts 21°
2026-05-06 17:03 33.21657 -16.46829 17949 ft 349 kts 21°
2026-05-06 17:03 33.23874 -16.45619 18506 ft 352 kts 21°
2026-05-06 17:03 33.26110 -16.44396 18989 ft 355 kts 21°
2026-05-06 17:03 33.28366 -16.43163 19527 ft 357 kts 21°
2026-05-06 17:04 33.30631 -16.41923 20041 ft 359 kts 21°
2026-05-06 17:04 33.32913 -16.40674 20535 ft 362 kts 21°
2026-05-06 17:04 33.35216 -16.39414 21019 ft 365 kts 21°
2026-05-06 17:04 33.37537 -16.38142 21515 ft 368 kts 21°
2026-05-06 17:05 33.39868 -16.36864 22026 ft 370 kts 21°
2026-05-06 17:05 33.42218 -16.35574 22508 ft 373 kts 21°
2026-05-06 17:05 33.44584 -16.34276 22974 ft 376 kts 21°
2026-05-06 17:05 33.46970 -16.32966 23453 ft 378 kts 20°
2026-05-06 17:06 33.49367 -16.31648 23901 ft 380 kts 21°
2026-05-06 17:06 33.51775 -16.30324 24269 ft 383 kts 20°
2026-05-06 17:06 33.54210 -16.28984 24640 ft 386 kts 21°
2026-05-06 17:06 33.56659 -16.27636 25020 ft 388 kts 20°
2026-05-06 17:07 33.59117 -16.26281 25415 ft 390 kts 20°
2026-05-06 17:07 33.61593 -16.24916 25775 ft 393 kts 20°
2026-05-06 17:07 33.64086 -16.23541 26128 ft 396 kts 20°
2026-05-06 17:07 33.66592 -16.22158 26530 ft 396 kts 20°
2026-05-06 17:08 33.69089 -16.20777 27051 ft 394 kts 20°
2026-05-06 17:08 33.71572 -16.19403 27525 ft 393 kts 20°
2026-05-06 17:08 33.74055 -16.18029 27930 ft 393 kts 20°
2026-05-06 17:09 33.79145 -16.15217 28174 ft 410 kts 21°
2026-05-06 17:09 33.80895 -16.14249 28389 ft 411 kts 21°